Flag for Congo Weather past 2 weeks in Brazzaville, Congo

Now
86 °F

Passing clouds.


Feels Like: 88 °F
Forecast: 70 / 86 °F
Wind: 7 mph from West

Location: Brazzaville / Maya-Maya

Current Time: Aug 30, 2015 at 7:04:27 PM

Latest Report: Aug 30, 2015 at 6:00 PM


Visibility: 6 mi

Pressure: 29.89 "Hg

Humidity: 52%

Dew point: 66 °F

Location of BrazzavilleLocation

Historic Weather in Brazzaville — Graph

°F

Brazzaville temperature yesterday

Maximum temperature yesterday: 88 °F (at 2:00 PM)
Minimum temperature yesterday: 66 °F (at 5:00 AM)
Average temperature yesterday: 76 °F

Past Weeks' High & Low Weather Summary

 TemperatureHumidityPressure
High91 °F (Aug 20, 3:00 PM)94% (Aug 18, 4:00 AM)30.09 "Hg (Aug 18, 4:00 AM)
Low66 °F (Aug 29, 5:00 AM)46% (Aug 20, 3:00 PM)29.80 "Hg (Aug 20, 3:00 PM)
Average76 °F71%29.95 "Hg
* Reported Aug 15 6:00 PM — Aug 30 6:00 PM, Brazzaville, Weather by CustomWeather, © 2015

Note: Actual official high and low records may vary slightly from our data, if they occured in-between our weather recording intervals... More about our weather records

Advertising

Brazzaville weather history for previous 24 hours

 ConditionsComfort  
Time TempWeatherWind HumidityBarometerVisibility
6:00 PM
Sun, Aug 30
86 °FPassing clouds.7 mph52%29.89 "Hg6 mi
5:00 PM88 °FScattered clouds.8 mph49%29.89 "Hg6 mi
4:00 PM90 °FScattered clouds.8 mph49%29.89 "HgN/A
3:00 PM90 °FPartly sunny.7 mph46%29.89 "HgN/A
2:00 PM88 °FScattered clouds.6 mph49%29.92 "HgN/A
1:00 PM88 °FScattered clouds.9 mph49%29.95 "HgN/A
12:00 PM84 °FScattered clouds.6 mph55%30.01 "HgN/A
11:00 AM81 °FPassing clouds.5 mph62%30.04 "HgN/A
10:00 AM77 °FPartly sunny.6 mph69%30.07 "Hg5 mi
9:00 AM75 °FPartly sunny.9 mph69%30.07 "Hg5 mi
8:00 AM73 °FScattered clouds.10 mph74%30.07 "Hg5 mi
7:00 AM72 °FPartly sunny.9 mph78%30.04 "Hg5 mi
6:00 AM72 °FPartly sunny.6 mph78%30.04 "Hg5 mi
5:00 AM72 °FPassing clouds.5 mph78%30.04 "Hg5 mi
4:00 AM72 °FPassing clouds.6 mph78%30.01 "Hg5 mi
3:00 AM73 °FPassing clouds.9 mph74%30.04 "Hg5 mi
2:00 AM73 °FPassing clouds.9 mph74%30.04 "Hg5 mi
1:00 AM73 °FPassing clouds.9 mph74%30.04 "Hg5 mi
12:00 AM73 °FPassing clouds.8 mph74%30.07 "Hg5 mi
11:00 PM
Sat, Aug 29
75 °FPassing clouds.7 mph74%30.07 "Hg5 mi
10:00 PM75 °FPassing clouds.12 mph74%30.04 "Hg5 mi
9:00 PM75 °FClear.12 mph74%30.01 "Hg4 mi
8:00 PM79 °FClear.10 mph65%29.98 "Hg4 mi
7:00 PM81 °FClear.12 mph62%29.95 "Hg4 mi
Weather by CustomWeather, © 2015

See weather overviewHow to use our weather pages